CAPE
0 0 0 0 0 0 0 0 0 0 0 0 0 0 0 0 0 0 0 0 0 308 186 763 1012 904 913 513 273 185 116 163 370 171 64 63 27 42 47 114 61 85 0 0 36
0 0 0 0 0 0 0 0 0 0 0 0 0 0 0 0 0 0 0 2 351 241 370 736 714 653 607 458 198 231 154 320 428 91 52 37 60 114 35 46 59 13 0 0 0
0 0 0 0 0 0 0 0 0 0 0 0 0 0 0 0 0 0 21 299 655 41 577 584 123 59 153 169 351 250 167 452 447 80 47 62 57 35 0 7 0 0 0 0 0
0 0 0 0 0 0 0 0 0 0 0 0 0 0 0 0 0 0 715 530 668 480 546 874 328 150 133 100 256 464 282 314 509 335 46 22 80 84 0 0 0 0 0 0 0
0 0 0 0 0 0 0 0 0 0 0 0 0 0 0 0 0 20 653 678 104 329 1345 219 198 151 110 229 257 420 570 249 67 130 99 197 251 88 18 2 0 0 0 0 0
0 0 0 0 0 0 0 0 0 0 0 0 0 0 0 0 0 0 64 136 190 414 558 272 177 4 116 319 209 335 109 113 87 88 225 272 387 144 37 3 0 0 0 0 0
0 0 0 0 0 0 0 0 0 0 0 0 0 0 0 0 0 33 119 156 201 292 387 403 590 229 119 347 371 90 35 69 50 119 170 142 112 277 106 57 39 0 0 0 0
0 0 0 0 0 0 0 0 0 0 0 0 0 0 0 0 0 45 58 265 382 219 249 708 546 536 686 373 173 7 1 30 51 88 164 141 34 149 119 46 148 51 81 0 0
0 0 0 0 0 0 0 0 0 0 0 0 0 0 0 0 0 1 125 258 357 289 244 733 372 519 206 21 21 4 19 30 45 31 110 100 259 254 193 242 324 134 120 110 0
0 0 0 0 0 0 0 0 0 0 0 0 0 0 0 0 0 0 141 185 260 336 395 118 140 120 59 64 28 79 49 68 87 95 111 196 241 65 70 234 150 358 233 124 29
0 0 0 0 0 0 0 0 0 0 0 0 0 0 0 0 0 0 4 195 176 276 301 218 26 67 60 87 177 117 87 142 190 133 142 131 184 124 100 88 23 266 355 158 226
0 0 0 0 0 0 0 0 0 0 0 0 0 0 0 0 1 1 0 97 129 212 220 35 40 43 171 141 163 126 103 130 89 190 197 178 160 402 234 89 167 159 406 382 253
0 0 0 0 0 0 0 0 0 0 0 0 0 0 0 1 11 18 122 140 385 335 58 31 74 84 236 189 258 198 113 18 6 207 208 85 28 351 345 224 138 287 355 488 478
0 0 0 0 0 0 0 0 0 0 0 0 0 0 0 44 74 102 87 446 615 423 297 112 211 363 305 323 204 165 38 54 185 257 62 135 14 192 321 356 264 316 484 542 563
0 0 0 0 0 0 0 0 0 0 0 0 0 0 0 0 111 183 181 425 328 112 331 286 80 18 55 39 39 11 24 21 26 8 0 65 1 3 71 216 134 208 269 557 660
0 0 0 0 0 0 0 0 0 0 0 0 0 0 0 180 226 357 303 401 377 251 173 275 275 84 149 217 105 6 0 21 47 14 2 0 44 0 27 37 92 195 369 449 557
0 0 0 0 0 0 0 0 0 0 0 0 0 7 55 130 143 288 339 235 286 233 0 0 18 58 93 177 0 14 0 14 3 2 3 18 102 9 67 0 8 0 10 247 531
0 0 0 0 0 0 12 0 0 0 10 0 8 36 2 88 124 230 266 333 226 174 97 15 34 73 65 75 0 23 15 0 0 0 0 44 11 1 26 0 0 0 63 330 689
0 0 0 0 0 4 5 0 0 1 13 35 29 16 34 159 168 298 42 185 234 152 9 45 52 31 79 64 8 0 0 0 0 0 0 0 0 0 0 0 0 0 148 278 904
0 0 0 0 0 4 0 0 0 0 0 28 49 92 103 66 28 1 4 141 201 157 47 66 15 21 2 29 1 0 0 0 0 0 0 0 0 0 0 0 0 10 280 446 620
0 0 0 0 14 2 0 0 0 0 0 0 1 4 121 68 0 0 30 47 140 178 121 44 5 0 0 0 0 0 1 0 0 0 0 0 0 0 0 0 0 6 449 624 800
0 0 0 0 36 8 0 0 0 0 0 0 0 40 16 6 0 3 20 0 102 174 57 18 0 0 0 0 0 0 0 0 0 0 0 0 0 0 0 0 0 336 674 802 938
0 0 0 15 34 13 0 0 0 0 0 0 0 0 0 0 0 0 0 0 0 0 0 0 0 0 0 0 0 0 0 0 0 0 0 0 0 0 0 1 149 936 1044 945 828
0 0 42 38 1 6 15 4 0 0 0 0 0 0 0 0 0 0 0 0 0 0 0 0 0 0 0 0 0 0 0 0 0 0 0 0 0 3 59 328 873 1001 892 884 908
0 0 27 7 1 23 17 0 0 0 0 0 0 0 0 0 0 0 0 0 0 1 0 0 0 0 0 0 0 0 0 0 0 0 0 0 0 39 74 157 481 906 1075 1124 1196
0 1 23 0 8 7 1 0 0 0 0 0 0 0 0 0 0 0 0 0 0 0 0 0 0 0 0 0 0 0 0 0 0 0 0 0 0 39 49 41 19 7 50 425 1246
0 1 0 0 0 0 0 0 0 0 0 0 0 0 0 0 0 0 0 0 0 0 0 0 0 0 0 0 0 0 0 0 0 0 0 0 0 0 12 10 378 356 327 270 1056
CIN
-0 -0 -0 -0 -0 -0 -0 -0 -0 -0 -0 -0 -0 -0 -0 -0 -0 -0 -0 -0 -0 -460 -124 -108 -43 -72 -87 -69 -106 -220 -168 -103 -90 -30 -33 -6 -12 -47 -96 -143 -70 -65 -0 -0 -226
-0 -0 -0 -0 -0 -0 -0 -0 -0 -0 -0 -0 -0 -0 -0 -0 -0 -0 -0 -59 -474 -504 -139 -66 -34 -44 -21 -179 -255 -202 -240 -202 -93 -75 -43 -5 -6 -6 -117 -124 -80 -46 -0 -0 -0
-0 -0 -0 -0 -0 -0 -0 -0 -0 -0 -0 -0 -0 -0 -0 -0 -0 -0 -411 -474 -431 -203 -78 -51 -270 -64 -208 -288 -156 -198 -159 -93 -74 -78 -117 -28 -7 -53 -0 -45 -0 -0 -0 -0 -0
-0 -0 -0 -0 -0 -0 -0 -0 -0 -0 -0 -0 -0 -0 -0 -0 -0 -0 -487 -459 -465 -42 -62 -103 -149 -248 -216 -29 -128 -113 -136 -54 -54 -44 -89 -42 -59 -72 -0 -0 -0 -0 -0 -0 -0
-0 -0 -0 -0 -0 -0 -0 -0 -0 -0 -0 -0 -0 -0 -0 -0 -0 -348 -472 -443 -58 -111 -89 -180 -243 -276 -86 -54 -71 -155 -135 -36 -28 -17 -33 -57 -61 -82 -90 -77 -0 -0 -0 -0 -0
-0 -0 -0 -0 -0 -0 -0 -0 -0 -0 -0 -0 -0 -0 -0 -0 -0 -0 -67 -89 -72 -59 -163 -56 -117 -80 -86 -264 -188 -149 -68 -81 -101 -51 -25 -71 -57 -72 -151 -25 -0 -0 -0 -0 -0
-0 -0 -0 -0 -0 -0 -0 -0 -0 -0 -0 -0 -0 -0 -0 -0 -0 -100 -75 -81 -41 -22 -98 -118 -188 -56 -118 -195 -187 -183 -141 -70 -35 -15 -78 -38 -18 -73 -134 -68 -10 -0 -0 -0 -0
-0 -0 -0 -0 -0 -0 -0 -0 -0 -0 -0 -0 -0 -0 -0 -0 -0 -60 -61 -28 -13 -48 -98 -208 -94 -183 -194 -265 -165 -151 -29 -33 -11 -199 -82 -79 -1 -84 -188 -168 -99 -31 -28 -0 -0
-0 -0 -0 -0 -0 -0 -0 -0 -0 -0 -0 -0 -0 -0 -0 -0 -0 -48 -17 -37 -52 -41 -63 -188 -222 -176 -201 -87 -19 -32 -1 -26 -49 -5 -97 -96 -114 -174 -239 -195 -150 -71 -51 -53 -0
-0 -0 -0 -0 -0 -0 -0 -0 -0 -0 -0 -0 -0 -0 -0 -0 -0 -0 -41 -42 -71 -60 -107 -78 -42 -124 -149 -149 -50 -67 -99 -92 -18 -62 -140 -119 -219 -102 -395 -291 -78 -70 -26 -52 -106
-0 -0 -0 -0 -0 -0 -0 -0 -0 -0 -0 -0 -0 -0 -0 -0 -0 -0 -66 -51 -67 -59 -28 -360 -13 -27 -9 -79 -165 -239 -163 -192 -142 -27 -42 -41 -30 -43 -368 -104 -353 -67 -96 -189 -264
-0 -0 -0 -0 -0 -0 -0 -0 -0 -0 -0 -0 -0 -0 -0 -0 -25 -25 -0 -46 -34 -30 -26 -73 -20 -34 -143 -34 -32 -180 -147 -130 -100 -108 -29 -188 -184 -266 -285 -159 -30 -21 -81 -62 -38
-0 -0 -0 -0 -0 -0 -0 -0 -0 -0 -0 -0 -0 -0 -0 -6 -82 -82 -14 -39 -65 -60 -14 -23 -55 -71 -121 -50 -44 -56 -80 -77 -14 -101 -52 -37 -56 -263 -277 -127 -69 -27 -37 -76 -42
-0 -0 -0 -0 -0 -0 -0 -0 -0 -0 -0 -0 -0 -0 -0 -111 -27 -15 -40 -80 -132 -125 -71 -25 -30 -65 -34 -35 -70 -73 -109 -62 -32 -45 -33 -61 -12 -177 -266 -214 -182 -51 -45 -52 -72
-0 -0 -0 -0 -0 -0 -0 -0 -0 -0 -0 -0 -0 -0 -0 -1 -26 -6 -6 -78 -35 -29 -124 -92 -44 -27 -21 -23 -65 -5 -2 -2 -34 -38 -20 -74 -4 -38 -218 -191 -67 -53 -47 -50 -78
-0 -0 -0 -0 -0 -0 -0 -0 -0 -0 -0 -0 -0 -0 -0 -14 -11 -4 -4 -41 -29 -36 -109 -100 -62 -31 -32 -30 -48 -10 -0 -66 -59 -54 -41 -0 -28 -0 -49 -51 -39 -90 -53 -85 -88
-0 -0 -0 -0 -0 -0 -0 -0 -0 -0 -0 -0 -0 -10 -19 -8 -5 -5 -18 -31 -34 -31 -0 -0 -26 -38 -58 -36 -6 -12 -0 -52 -32 -48 -32 -59 -52 -76 -96 -0 -38 -0 -72 -161 -128
-0 -0 -0 -0 -0 -0 -93 -0 -0 -0 -14 -0 -4 -2 -4 -13 -13 -21 -25 -16 -27 -22 -27 -22 -22 -21 -25 -33 -0 -9 -33 -0 -0 -0 -0 -43 -43 -10 -81 -0 -0 -0 -334 -213 -130
-0 -0 -0 -0 -0 -56 -88 -0 -0 -1 -1 -3 -4 -16 -89 -51 -24 -18 -44 -38 -23 -15 -59 -31 -78 -94 -8 -15 -4 -2 -0 -0 -0 -0 -0 -0 -0 -0 -0 -0 -0 -0 -220 -167 -148
-0 -0 -0 -0 -0 -83 -0 -0 -0 -0 -0 -6 -1 -22 -28 -20 -116 -11 -65 -41 -43 -32 -54 -61 -38 -38 -57 -18 -6 -0 -0 -0 -0 -0 -0 -0 -0 -0 -0 -0 -0 -102 -154 -126 -167
-0 -0 -0 -0 -115 -72 -0 -0 -0 -0 -0 -0 -7 -18 -23 -89 -0 -0 -68 -36 -109 -45 -48 -126 -11 -0 -0 -0 -0 -0 -3 -0 -0 -0 -0 -0 -0 -0 -0 -0 -0 -122 -120 -114 -181
-0 -0 -0 -0 -56 -64 -0 -0 -0 -0 -0 -0 -0 -16 -34 -122 -0 -83 -117 -0 -70 -59 -97 -118 -0 -0 -0 -0 -0 -0 -0 -0 -0 -0 -0 -0 -0 -0 -0 -0 -0 -240 -205 -219 -220
-0 -0 -0 -57 -35 -41 -0 -0 -0 -0 -0 -0 -0 -0 -0 -0 -0 -0 -0 -0 -0 -0 -0 -0 -0 -0 -0 -0 -0 -0 -0 -0 -0 -0 -0 -0 -0 -0 -0 -42 -378 -305 -257 -259 -251
-0 -0 -72 -66 -14 -52 -74 -106 -0 -0 -0 -0 -0 -0 -0 -0 -0 -0 -0 -0 -0 -0 -0 -0 -0 -0 -0 -0 -0 -0 -0 -0 -0 -0 -0 -0 -0 -165 -419 -320 -255 -254 -276 -270 -291
-0 -0 -278 -45 -6 -47 -65 -0 -0 -0 -0 -0 -0 -0 -0 -0 -0 -0 -0 -0 -0 -374 -0 -0 -0 -0 -0 -0 -0 -0 -0 -0 -0 -0 -0 -0 -0 -357 -360 -352 -282 -226 -243 -258 -241
-0 -178 -264 -0 -277 -135 -27 -0 -0 -0 -0 -0 -0 -0 -0 -0 -0 -0 -0 -0 -0 -0 -0 -0 -0 -0 -0 -0 -0 -0 -0 -0 -0 -0 -0 -0 -0 -407 -397 -385 -365 -425 -337 -284 -193
-0 -114 -0 -0 -0 -0 -0 -0 -0 -0 -0 -0 -0 -0 -0 -0 -0 -0 -0 -0 -0 -0 -0 -0 -0 -0 -0 -0 -0 -0 -0 -0 -0 -0 -0 -0 -0 -0 -396 -250 -289 -280 -238 -221 -229
Wind_Speed
nan nan nan nan nan nan nan nan nan nan nan nan nan nan nan nan nan nan nan nan nan 4 11 5 3 1 5 8 14 4 11 18 6 11 nan nan nan nan nan 18 nan nan nan nan nan
nan nan nan nan nan nan nan nan nan nan nan nan nan nan nan nan nan nan nan nan 5 8 6 7 7 5 5 16 14 12 14 19 17 nan nan nan nan 17 nan nan nan nan nan nan nan
nan nan nan nan nan nan nan nan nan nan nan nan nan nan nan nan nan nan nan 2 3 nan 4 2 2 nan 7 16 17 16 22 25 22 nan nan nan nan nan nan nan nan nan nan nan nan
nan nan nan nan nan nan nan nan nan nan nan nan nan nan nan nan nan nan 8 5 4 10 4 4 11 3 7 12 10 11 31 30 23 21 nan nan nan nan nan nan nan nan nan nan nan
nan nan nan nan nan nan nan nan nan nan nan nan nan nan nan nan nan nan 5 6 1 3 8 10 26 10 11 13 16 19 29 22 nan 10 nan 14 10 nan nan nan nan nan nan nan nan
nan nan nan nan nan nan nan nan nan nan nan nan nan nan nan nan nan nan nan 1 8 4 11 20 12 nan 15 6 6 23 16 22 nan nan 5 23 12 19 nan nan nan nan nan nan nan
nan nan nan nan nan nan nan nan nan nan nan nan nan nan nan nan nan nan 2 6 5 8 10 26 28 21 9 12 13 nan nan nan nan 8 3 14 4 13 2 nan nan nan nan nan nan
nan nan nan nan nan nan nan nan nan nan nan nan nan nan nan nan nan nan nan 10 7 5 9 30 28 16 18 18 8 nan nan nan nan nan 3 22 nan 8 8 nan 11 nan nan nan nan
nan nan nan nan nan nan nan nan nan nan nan nan nan nan nan nan nan nan 4 8 2 11 9 25 21 18 18 nan nan nan nan nan nan nan 3 14 13 13 19 16 15 15 18 25 nan
nan nan nan nan nan nan nan nan nan nan nan nan nan nan nan nan nan nan 7 6 1 4 3 13 12 10 nan nan nan nan nan nan nan nan 11 16 17 nan nan 11 15 16 15 16 nan
nan nan nan nan nan nan nan nan nan nan nan nan nan nan nan nan nan nan nan 4 3 5 5 5 nan nan nan nan 5 10 nan 16 25 27 14 19 23 26 25 nan nan 15 14 18 14
nan nan nan nan nan nan nan nan nan nan nan nan nan nan nan nan nan nan nan nan 7 2 8 nan nan nan 16 18 9 11 6 17 nan 18 13 21 25 31 25 nan 25 18 24 26 19
nan nan nan nan nan nan nan nan nan nan nan nan nan nan nan nan nan nan 5 3 3 6 nan nan nan nan 15 19 14 10 9 nan nan 9 5 nan nan 25 25 29 26 32 25 25 27
nan nan nan nan nan nan nan nan nan nan nan nan nan nan nan nan nan 5 nan 3 3 5 2 11 7 10 10 20 21 14 nan nan 11 5 nan 19 nan 23 26 29 32 34 31 32 32
nan nan nan nan nan nan nan nan nan nan nan nan nan nan nan nan 5 5 7 7 13 8 7 9 nan nan nan nan nan nan nan nan nan nan nan nan nan nan nan 21 30 28 33 35 34
nan nan nan nan nan nan nan nan nan nan nan nan nan nan nan 7 6 8 4 3 8 1 8 9 7 nan 17 29 21 nan nan nan nan nan nan nan nan nan nan nan nan 26 34 34 29
nan nan nan nan nan nan nan nan nan nan nan nan nan nan nan 18 15 7 10 6 11 11 nan nan nan nan nan 18 nan nan nan nan nan nan nan nan 14 nan nan nan nan nan nan 21 23
nan nan nan nan nan nan nan nan nan nan nan nan nan nan nan nan 11 8 2 10 8 6 nan nan nan nan nan nan nan nan nan nan nan nan nan nan nan nan nan nan nan nan nan 21 23
nan nan nan nan nan nan nan nan nan nan nan nan nan nan nan 3 13 16 nan 14 14 10 nan nan nan nan nan nan nan nan nan nan nan nan nan nan nan nan nan nan nan nan 28 29 24
nan nan nan nan nan nan nan nan nan nan nan nan nan nan 13 nan nan nan nan 10 5 8 nan nan nan nan nan nan nan nan nan nan nan nan nan nan nan nan nan nan nan nan 36 32 28
nan nan nan nan nan nan nan nan nan nan nan nan nan nan 5 nan nan nan nan nan 11 8 10 nan nan nan nan nan nan nan nan nan nan nan nan nan nan nan nan nan nan nan 34 35 36
nan nan nan nan nan nan nan nan nan nan nan nan nan nan nan nan nan nan nan nan 15 17 nan nan nan nan nan nan nan nan nan nan nan nan nan nan nan nan nan nan nan 37 36 36 40
nan nan nan nan nan nan nan nan nan nan nan nan nan nan nan nan nan nan nan nan nan nan nan nan nan nan nan nan nan nan nan nan nan nan nan nan nan nan nan nan 36 42 38 40 41
nan nan nan nan nan nan nan nan nan nan nan nan nan nan nan nan nan nan nan nan nan nan nan nan nan nan nan nan nan nan nan nan nan nan nan nan nan nan nan 41 39 38 39 40 40
nan nan nan nan nan nan nan nan nan nan nan nan nan nan nan nan nan nan nan nan nan nan nan nan nan nan nan nan nan nan nan nan nan nan nan nan nan nan nan 39 35 33 34 39 43
nan nan nan nan nan nan nan nan nan nan nan nan nan nan nan nan nan nan nan nan nan nan nan nan nan nan nan nan nan nan nan nan nan nan nan nan nan nan nan nan nan nan nan 47 47
nan nan nan nan nan nan nan nan nan nan nan nan nan nan nan nan nan nan nan nan nan nan nan nan nan nan nan nan nan nan nan nan nan nan nan nan nan nan nan nan 38 38 43 45 47
Wind_Direction
nan nan nan nan nan nan nan nan nan nan nan nan nan nan nan nan nan nan nan nan nan 128 86 165 224 67 178 89 155 181 68 62 92 59 nan nan nan nan nan 359 nan nan nan nan nan
nan nan nan nan nan nan nan nan nan nan nan nan nan nan nan nan nan nan nan nan 180 84 122 84 42 294 145 113 136 133 107 77 44 nan nan nan nan 5 nan nan nan nan nan nan nan
nan nan nan nan nan nan nan nan nan nan nan nan nan nan nan nan nan nan nan 114 103 nan 151 136 226 nan 155 115 123 111 94 89 84 nan nan nan nan nan nan nan nan nan nan nan nan
nan nan nan nan nan nan nan nan nan nan nan nan nan nan nan nan nan nan 181 221 48 112 89 185 177 225 183 131 119 111 86 78 120 30 nan nan nan nan nan nan nan nan nan nan nan
nan nan nan nan nan nan nan nan nan nan nan nan nan nan nan nan nan nan 218 251 212 155 252 285 231 195 136 154 137 115 100 133 nan 46 nan 281 268 nan nan nan nan nan nan nan nan
nan nan nan nan nan nan nan nan nan nan nan nan nan nan nan nan nan nan nan 107 32 336 282 241 212 nan 120 74 60 76 119 120 nan nan 343 289 324 313 nan nan nan nan nan nan nan
nan nan nan nan nan nan nan nan nan nan nan nan nan nan nan nan nan nan 7 92 68 339 347 327 10 43 104 97 36 nan nan nan nan 139 316 309 19 318 223 nan nan nan nan nan nan
nan nan nan nan nan nan nan nan nan nan nan nan nan nan nan nan nan nan nan 136 79 320 5 343 355 32 51 59 79 nan nan nan nan nan 217 235 nan 268 294 nan 13 nan nan nan nan
nan nan nan nan nan nan nan nan nan nan nan nan nan nan nan nan nan nan 23 95 84 311 307 333 351 29 43 nan nan nan nan nan nan nan 14 343 1 24 26 358 24 15 33 29 nan
nan nan nan nan nan nan nan nan nan nan nan nan nan nan nan nan nan nan 67 43 286 269 304 315 346 346 nan nan nan nan nan nan nan nan 23 37 42 nan nan 56 66 19 22 21 nan
nan nan nan nan nan nan nan nan nan nan nan nan nan nan nan nan nan nan nan 91 35 252 274 326 nan nan nan nan 81 103 nan 78 75 48 19 46 41 54 58 nan nan 19 13 40 38
nan nan nan nan nan nan nan nan nan nan nan nan nan nan nan nan nan nan nan nan 213 183 156 nan nan nan 75 100 76 90 98 93 nan 30 38 47 68 47 60 nan 67 63 53 54 56
nan nan nan nan nan nan nan nan nan nan nan nan nan nan nan nan nan nan 281 245 337 326 nan nan nan nan 11 75 59 57 61 nan nan 28 92 nan nan 62 52 65 80 76 55 56 47
nan nan nan nan nan nan nan nan nan nan nan nan nan nan nan nan nan 346 nan 10 101 97 77 102 115 119 96 64 47 81 nan nan 276 13 nan 43 nan 46 44 55 55 58 48 44 28
nan nan nan nan nan nan nan nan nan nan nan nan nan nan nan nan 88 129 54 155 60 96 250 92 nan nan nan nan nan nan nan nan nan nan nan nan nan nan nan 53 49 47 37 35 28
nan nan nan nan nan nan nan nan nan nan nan nan nan nan nan 108 144 154 47 124 53 298 191 93 131 nan 115 119 108 nan nan nan nan nan nan nan nan nan nan nan nan 8 2 7 28
nan nan nan nan nan nan nan nan nan nan nan nan nan nan nan 165 172 154 60 33 16 53 nan nan nan nan nan 150 nan nan nan nan nan nan nan nan 345 nan nan nan nan nan nan 351 7
nan nan nan nan nan nan nan nan nan nan nan nan nan nan nan nan 191 167 113 77 49 44 nan nan nan nan nan nan nan nan nan nan nan nan nan nan nan nan nan nan nan nan nan 351 3
nan nan nan nan nan nan nan nan nan nan nan nan nan nan nan 87 307 228 nan 55 45 21 nan nan nan nan nan nan nan nan nan nan nan nan nan nan nan nan nan nan nan nan 357 352 358
nan nan nan nan nan nan nan nan nan nan nan nan nan nan 323 nan nan nan nan 42 26 3 nan nan nan nan nan nan nan nan nan nan nan nan nan nan nan nan nan nan nan nan 329 335 334
nan nan nan nan nan nan nan nan nan nan nan nan nan nan 9 nan nan nan nan nan 342 299 243 nan nan nan nan nan nan nan nan nan nan nan nan nan nan nan nan nan nan nan 322 335 332
nan nan nan nan nan nan nan nan nan nan nan nan nan nan nan nan nan nan nan nan 312 299 nan nan nan nan nan nan nan nan nan nan nan nan nan nan nan nan nan nan nan 314 326 331 330
nan nan nan nan nan nan nan nan nan nan nan nan nan nan nan nan nan nan nan nan nan nan nan nan nan nan nan nan nan nan nan nan nan nan nan nan nan nan nan nan 300 311 324 328 326
nan nan nan nan nan nan nan nan nan nan nan nan nan nan nan nan nan nan nan nan nan nan nan nan nan nan nan nan nan nan nan nan nan nan nan nan nan nan nan 293 302 313 322 322 317
nan nan nan nan nan nan nan nan nan nan nan nan nan nan nan nan nan nan nan nan nan nan nan nan nan nan nan nan nan nan nan nan nan nan nan nan nan nan nan 303 308 316 318 318 316
nan nan nan nan nan nan nan nan nan nan nan nan nan nan nan nan nan nan nan nan nan nan nan nan nan nan nan nan nan nan nan nan nan nan nan nan nan nan nan nan nan nan nan 310 314
nan nan nan nan nan nan nan nan nan nan nan nan nan nan nan nan nan nan nan nan nan nan nan nan nan nan nan nan nan nan nan nan nan nan nan nan nan nan nan nan 301 301 297 298 303